Location: Mascot Post Office (historical)
(40.2645°N, 99.5462°W)
Time: 09:17:51
(UTC+00:00)

NOSS 3-4 (C) - Pass Details

Date: 20 October 2020
Orbit: 886 x 1326 km, 63.4° (Epoch: 06 November)

Event Time Altitude Azimuth Distance (km) Brightness Sun altitude
Rises 04:50:25 0° 325° (NW) 3,866 7.2 -53.9°
Reaches altitude 10° 04:52:57 10° 325° (NW) 2,968 6.4 -54.2°
Enters shadow 04:52:58 10° 325° (NW) 2,962 6.4 -54.2°
